QPF
0.02 0.04 0.08 0.13 0.14 0.14 0.19 0.20 0.14 0.09 0.07 0.08 0.07 0.05 0.05 0.04 0.03 0.03 0.09 0.10 0.03 0.01 0.01 0.03 0.05 0.03 0.02 0.03 0.03 0.01 0.01 0.01 0.00 0.01 0.01 0.01 0.00 0.00 0.00 0.00 0.00 0.00 0.00 0.00 0.00 0.00 0.00 0.00 0.00
0.02 0.07 0.12 0.17 0.16 0.16 0.20 0.19 0.11 0.07 0.07 0.06 0.05 0.04 0.03 0.01 0.01 0.03 0.10 0.09 0.02 0.00 0.00 0.01 0.03 0.02 0.02 0.03 0.03 0.01 0.00 0.01 0.01 0.02 0.02 0.01 0.00 0.00 0.01 0.01 0.00 0.00 0.00 0.00 0.00 0.00 0.00 0.00 0.00
0.03 0.10 0.18 0.19 0.17 0.18 0.25 0.19 0.09 0.06 0.04 0.02 0.02 0.02 0.02 0.01 0.01 0.03 0.04 0.02 0.01 0.00 0.00 0.01 0.02 0.01 0.01 0.01 0.01 0.01 0.01 0.00 0.01 0.01 0.01 0.00 0.00 0.00 0.01 0.01 0.01 0.00 0.00 0.00 0.00 0.00 0.00 0.00 0.00
0.05 0.11 0.17 0.15 0.15 0.17 0.19 0.12 0.07 0.04 0.02 0.01 0.01 0.01 0.02 0.02 0.01 0.01 0.01 0.01 0.00 0.00 0.01 0.01 0.01 0.00 0.00 0.01 0.01 0.01 0.01 0.01 0.01 0.00 0.00 0.00 0.00 0.00 0.00 0.00 0.01 0.00 0.00 0.00 0.00 0.00 0.00 0.00 0.00
0.09 0.11 0.11 0.10 0.12 0.15 0.15 0.08 0.04 0.02 0.01 0.01 0.00 0.01 0.04 0.05 0.01 0.01 0.01 0.01 0.00 0.00 0.01 0.02 0.02 0.01 0.00 0.00 0.01 0.01 0.01 0.02 0.02 0.01 0.00 0.00 0.00 0.00 0.00 0.00 0.00 0.00 0.00 0.00 0.00 0.00 0.00 0.00 0.00
0.16 0.12 0.10 0.08 0.14 0.13 0.13 0.07 0.04 0.03 0.02 0.02 0.01 0.01 0.05 0.06 0.05 0.03 0.01 0.01 0.00 0.00 0.01 0.01 0.02 0.02 0.01 0.00 0.00 0.00 0.00 0.01 0.01 0.00 0.00 0.00 0.00 0.00 0.00 0.00 0.00 0.00 0.00 0.00 0.00 0.00 0.00 0.01 0.01
0.16 0.13 0.10 0.09 0.15 0.19 0.14 0.07 0.05 0.05 0.03 0.02 0.01 0.02 0.04 0.05 0.05 0.05 0.03 0.02 0.00 0.00 0.00 0.00 0.01 0.02 0.01 0.00 0.00 0.00 0.00 0.00 0.00 0.00 0.00 0.00 0.00 0.00 0.00 0.00 0.00 0.00 0.01 0.00 0.00 0.00 0.01 0.01 0.02
0.20 0.17 0.12 0.11 0.13 0.16 0.15 0.08 0.07 0.04 0.04 0.01 0.01 0.01 0.02 0.02 0.02 0.03 0.02 0.02 0.00 0.00 0.00 0.00 0.01 0.00 0.00 0.00 0.00 0.00 0.00 0.00 0.00 0.00 0.00 0.00 0.00 0.00 0.00 0.00 0.00 0.00 0.00 0.00 0.00 0.01 0.01 0.01 0.01
0.15 0.14 0.14 0.12 0.11 0.11 0.14 0.12 0.09 0.05 0.02 0.01 0.01 0.01 0.01 0.01 0.01 0.01 0.01 0.00 0.00 0.00 0.00 0.00 0.00 0.00 0.00 0.00 0.00 0.00 0.00 0.00 0.00 0.00 0.00 0.00 0.00 0.00 0.00 0.00 0.00 0.00 0.00 0.00 0.00 0.01 0.01 0.02 0.01
0.12 0.13 0.13 0.11 0.10 0.08 0.09 0.08 0.06 0.05 0.03 0.02 0.02 0.01 0.01 0.00 0.01 0.01 0.01 0.00 0.00 0.00 0.00 0.00 0.00 0.00 0.00 0.00 0.00 0.00 0.00 0.00 0.00 0.00 0.00 0.00 0.00 0.00 0.00 0.00 0.00 0.00 0.00 0.00 0.01 0.01 0.01 0.01 0.01
0.09 0.11 0.10 0.11 0.10 0.08 0.06 0.04 0.03 0.04 0.05 0.03 0.02 0.01 0.01 0.00 0.00 0.00 0.00 0.00 0.00 0.00 0.00 0.00 0.00 0.00 0.00 0.00 0.00 0.00 0.00 0.00 0.00 0.00 0.00 0.00 0.00 0.00 0.00 0.00 0.00 0.00 0.00 0.00 0.00 0.00 0.01 0.00 0.01
0.10 0.09 0.08 0.07 0.06 0.07 0.06 0.04 0.03 0.02 0.02 0.01 0.01 0.01 0.01 0.01 0.00 0.00 0.00 0.00 0.00 0.00 0.00 0.00 0.00 0.00 0.00 0.00 0.00 0.00 0.00 0.00 0.00 0.00 0.00 0.00 0.00 0.00 0.00 0.00 0.00 0.00 0.00 0.00 0.00 0.01 0.01 0.01 0.01
0.10 0.09 0.08 0.07 0.03 0.03 0.04 0.03 0.02 0.02 0.01 0.01 0.01 0.01 0.01 0.00 0.00 0.00 0.00 0.00 0.00 0.00 0.00 0.00 0.00 0.00 0.00 0.00 0.00 0.00 0.00 0.00 0.00 0.00 0.00 0.00 0.00 0.00 0.00 0.00 0.00 0.00 0.00 0.00 0.01 0.02 0.02 0.01 0.01
0.07 0.08 0.06 0.03 0.03 0.03 0.04 0.03 0.03 0.02 0.02 0.02 0.01 0.01 0.01 0.01 0.01 0.00 0.00 0.00 0.00 0.00 0.00 0.00 0.00 0.00 0.00 0.00 0.00 0.00 0.00 0.00 0.00 0.00 0.00 0.00 0.00 0.00 0.00 0.00 0.00 0.00 0.00 0.01 0.01 0.01 0.01 0.00 0.01
0.05 0.07 0.07 0.04 0.03 0.03 0.04 0.05 0.03 0.02 0.02 0.02 0.02 0.02 0.01 0.00 0.00 0.00 0.00 0.00 0.00 0.00 0.00 0.00 0.00 0.00 0.00 0.00 0.00 0.00 0.00 0.00 0.00 0.00 0.00 0.00 0.00 0.00 0.00 0.00 0.00 0.00 0.00 0.01 0.00 0.00 0.00 0.00 0.00
0.07 0.09 0.10 0.05 0.03 0.02 0.04 0.08 0.04 0.02 0.01 0.02 0.02 0.03 0.02 0.01 0.00 0.00 0.00 0.00 0.00 0.01 0.00 0.00 0.00 0.00 0.00 0.00 0.00 0.00 0.00 0.00 0.00 0.00 0.00 0.00 0.00 0.00 0.00 0.00 0.00 0.00 0.00 0.00 0.00 0.00 0.00 0.00 0.00
0.09 0.09 0.08 0.07 0.04 0.03 0.02 0.04 0.03 0.03 0.02 0.02 0.03 0.03 0.03 0.02 0.01 0.01 0.01 0.00 0.00 0.00 0.00 0.00 0.00 0.00 0.00 0.00 0.00 0.00 0.00 0.00 0.00 0.00 0.00 0.00 0.00 0.00 0.00 0.00 0.00 0.00 0.00 0.00 0.00 0.00 0.00 0.01 0.01
0.05 0.07 0.08 0.09 0.06 0.04 0.02 0.02 0.03 0.03 0.02 0.02 0.04 0.04 0.04 0.04 0.03 0.01 0.01 0.01 0.01 0.01 0.00 0.00 0.00 0.00 0.00 0.00 0.00 0.00 0.00 0.00 0.00 0.00 0.00 0.00 0.00 0.00 0.00 0.00 0.00 0.00 0.00 0.00 0.01 0.01 0.01 0.01 0.01
0.03 0.04 0.07 0.08 0.05 0.05 0.03 0.03 0.03 0.02 0.03 0.03 0.02 0.03 0.03 0.04 0.03 0.02 0.01 0.01 0.01 0.01 0.01 0.00 0.00 0.00 0.00 0.00 0.00 0.00 0.00 0.00 0.00 0.00 0.00 0.00 0.00 0.00 0.00 0.00 0.00 0.01 0.00 0.00 0.01 0.01 0.01 0.01 0.01
0.04 0.06 0.08 0.07 0.07 0.06 0.05 0.04 0.03 0.02 0.02 0.02 0.01 0.02 0.02 0.03 0.03 0.03 0.02 0.01 0.01 0.01 0.01 0.00 0.00 0.00 0.00 0.00 0.00 0.00 0.00 0.00 0.00 0.00 0.00 0.00 0.00 0.00 0.00 0.00 0.00 0.01 0.01 0.01 0.00 0.01 0.02 0.02 0.01
0.08 0.10 0.08 0.06 0.07 0.06 0.06 0.05 0.03 0.02 0.01 0.02 0.01 0.01 0.02 0.01 0.02 0.03 0.04 0.03 0.01 0.01 0.01 0.01 0.00 0.00 0.00 0.00 0.00 0.00 0.00 0.00 0.00 0.00 0.00 0.00 0.00 0.00 0.00 0.00 0.00 0.00 0.01 0.01 0.00 0.01 0.01 0.01 0.01
0.10 0.07 0.07 0.06 0.08 0.06 0.04 0.04 0.03 0.02 0.01 0.01 0.01 0.00 0.01 0.01 0.01 0.02 0.02 0.01 0.01 0.01 0.01 0.00 0.00 0.00 0.00 0.00 0.00 0.00 0.00 0.00 0.00 0.00 0.00 0.00 0.00 0.00 0.00 0.00 0.00 0.00 0.00 0.00 0.00 0.00 0.00 0.01 0.01
0.07 0.06 0.08 0.08 0.08 0.04 0.04 0.03 0.02 0.02 0.01 0.01 0.01 0.00 0.01 0.01 0.01 0.01 0.01 0.01 0.01 0.00 0.00 0.00 0.00 0.00 0.00 0.00 0.00 0.00 0.00 0.00 0.00 0.00 0.00 0.00 0.00 0.00 0.00 0.00 0.00 0.00 0.00 0.00 0.00 0.00 0.00 0.00 0.01
0.07 0.09 0.09 0.09 0.08 0.06 0.04 0.02 0.01 0.02 0.01 0.00 0.00 0.00 0.00 0.01 0.01 0.01 0.01 0.01 0.00 0.00 0.00 0.00 0.00 0.00 0.00 0.00 0.00 0.00 0.00 0.00 0.00 0.00 0.00 0.00 0.00 0.00 0.00 0.00 0.00 0.00 0.00 0.00 0.00 0.00 0.00 0.00 0.01
0.08 0.10 0.09 0.09 0.07 0.06 0.03 0.02 0.01 0.01 0.01 0.00 0.00 0.00 0.00 0.00 0.00 0.00 0.00 0.00 0.00 0.00 0.00 0.00 0.00 0.00 0.00 0.00 0.00 0.00 0.00 0.00 0.00 0.00 0.00 0.00 0.00 0.00 0.00 0.00 0.00 0.00 0.00 0.00 0.00 0.00 0.00 0.00 0.01
0.05 0.06 0.05 0.07 0.07 0.06 0.02 0.02 0.02 0.01 0.00 0.01 0.00 0.00 0.00 0.00 0.00 0.00 0.00 0.00 0.00 0.00 0.00 0.00 0.00 0.00 0.00 0.00 0.00 0.00 0.00 0.00 0.00 0.00 0.00 0.00 0.00 0.00 0.00 0.00 0.00 0.00 0.00 0.00 0.00 0.00 0.00 0.01 0.00
0.04 0.04 0.04 0.07 0.07 0.05 0.02 0.01 0.01 0.01 0.00 0.00 0.00 0.00 0.00 0.00 0.00 0.00 0.00 0.00 0.00 0.00 0.00 0.00 0.00 0.00 0.00 0.00 0.00 0.00 0.00 0.00 0.00 0.00 0.00 0.00 0.00 0.00 0.00 0.00 0.00 0.00 0.00 0.00 0.00 0.00 0.00 0.00 0.00
0.02 0.03 0.04 0.05 0.04 0.03 0.01 0.01 0.00 0.00 0.00 0.00 0.00 0.00 0.00 0.00 0.00 0.00 0.00 0.00 0.00 0.00 0.00 0.00 0.00 0.00 0.00 0.00 0.00 0.00 0.00 0.00 0.00 0.00 0.00 0.00 0.00 0.00 0.00 0.00 0.00 0.00 0.00 0.00 0.00 0.00 0.00 0.00 0.00
0.01 0.02 0.03 0.03 0.02 0.02 0.01 0.00 0.00 0.00 0.00 0.00 0.00 0.00 0.00 0.00 0.00 0.00 0.00 0.00 0.00 0.00 0.00 0.00 0.00 0.00 0.00 0.00 0.00 0.00 0.00 0.00 0.00 0.00 0.00 0.00 0.00 0.00 0.00 0.00 0.00 0.00 0.00 0.00 0.00 0.00 0.00 0.00 0.00
0.00 0.01 0.02 0.03 0.02 0.01 0.01 0.00 0.00 0.00 0.00 0.00 0.00 0.00 0.00 0.00 0.00 0.00 0.00 0.00 0.00 0.00 0.00 0.00 0.00 0.00 0.00 0.00 0.00 0.00 0.00 0.00 0.00 0.00 0.00 0.00 0.00 0.00 0.00 0.00 0.00 0.00 0.00 0.00 0.00 0.00 0.00 0.00 0.00
MSLP
1011.15 1011.84 1012.71 1013.65 1014.52 1015.21 1015.62 1015.73 1015.55 1015.18 1014.71 1014.28 1013.98 1013.84 1013.85 1013.96 1014.09 1014.15 1014.08 1013.86 1013.53 1013.14 1012.80 1012.56 1012.47 1012.53 1012.71 1012.92 1013.12 1013.25 1013.30 1013.27 1013.22 1013.19 1013.22 1013.33 1013.50 1013.69 1013.86 1013.94 1013.95 1013.87 1013.74 1013.62 1013.53 1013.51 1013.53 1013.58 1013.62
1011.53 1012.34 1013.28 1014.21 1014.99 1015.52 1015.71 1015.58 1015.17 1014.59 1013.98 1013.48 1013.16 1013.07 1013.18 1013.41 1013.66 1013.82 1013.84 1013.70 1013.44 1013.11 1012.82 1012.63 1012.59 1012.69 1012.89 1013.11 1013.32 1013.44 1013.48 1013.46 1013.42 1013.40 1013.44 1013.56 1013.72 1013.88 1014.01 1014.06 1014.01 1013.90 1013.74 1013.60 1013.50 1013.47 1013.50 1013.55 1013.58
1011.99 1012.88 1013.85 1014.72 1015.38 1015.73 1015.70 1015.34 1014.72 1013.98 1013.28 1012.74 1012.45 1012.43 1012.63 1012.96 1013.31 1013.56 1013.66 1013.58 1013.38 1013.11 1012.88 1012.75 1012.75 1012.89 1013.11 1013.35 1013.55 1013.67 1013.71 1013.67 1013.62 1013.60 1013.63 1013.73 1013.86 1013.99 1014.07 1014.07 1013.99 1013.84 1013.66 1013.51 1013.42 1013.40 1013.44 1013.50 1013.54
1012.51 1013.46 1014.40 1015.20 1015.72 1015.88 1015.66 1015.11 1014.34 1013.49 1012.74 1012.20 1011.96 1012.01 1012.29 1012.70 1013.12 1013.43 1013.57 1013.54 1013.38 1013.17 1013.00 1012.92 1012.97 1013.14 1013.38 1013.63 1013.82 1013.93 1013.94 1013.89 1013.82 1013.78 1013.79 1013.85 1013.95 1014.04 1014.07 1014.03 1013.91 1013.74 1013.56 1013.42 1013.34 1013.34 1013.39 1013.47 1013.52
1013.08 1014.04 1014.93 1015.62 1016.00 1016.00 1015.63 1014.95 1014.09 1013.20 1012.45 1011.96 1011.77 1011.89 1012.23 1012.68 1013.13 1013.45 1013.61 1013.60 1013.47 1013.30 1013.17 1013.14 1013.24 1013.44 1013.69 1013.93 1014.11 1014.18 1014.17 1014.09 1013.99 1013.92 1013.90 1013.93 1013.99 1014.04 1014.04 1013.97 1013.84 1013.66 1013.49 1013.36 1013.31 1013.32 1013.40 1013.49 1013.55
1013.64 1014.57 1015.38 1015.97 1016.22 1016.10 1015.63 1014.88 1014.00 1013.14 1012.45 1012.03 1011.91 1012.07 1012.44 1012.90 1013.33 1013.63 1013.77 1013.76 1013.64 1013.49 1013.40 1013.41 1013.53 1013.75 1014.00 1014.22 1014.36 1014.40 1014.35 1014.24 1014.12 1014.02 1013.98 1013.99 1014.03 1014.05 1014.03 1013.95 1013.81 1013.64 1013.48 1013.38 1013.34 1013.38 1013.46 1013.55 1013.61
1014.13 1014.99 1015.71 1016.19 1016.33 1016.14 1015.63 1014.89 1014.06 1013.29 1012.69 1012.36 1012.31 1012.51 1012.88 1013.30 1013.67 1013.92 1014.01 1013.97 1013.84 1013.71 1013.64 1013.67 1013.81 1014.02 1014.25 1014.44 1014.55 1014.55 1014.47 1014.33 1014.19 1014.09 1014.04 1014.05 1014.07 1014.09 1014.06 1013.98 1013.85 1013.69 1013.56 1013.47 1013.44 1013.48 1013.56 1013.64 1013.68
1014.49 1015.26 1015.87 1016.23 1016.30 1016.06 1015.57 1014.90 1014.18 1013.53 1013.06 1012.83 1012.84 1013.06 1013.40 1013.77 1014.07 1014.24 1014.27 1014.18 1014.04 1013.92 1013.86 1013.90 1014.04 1014.24 1014.44 1014.59 1014.65 1014.62 1014.52 1014.37 1014.23 1014.14 1014.10 1014.11 1014.15 1014.17 1014.15 1014.08 1013.95 1013.81 1013.68 1013.60 1013.58 1013.60 1013.66 1013.70 1013.70
1014.68 1015.33 1015.82 1016.08 1016.08 1015.84 1015.40 1014.83 1014.25 1013.76 1013.43 1013.30 1013.37 1013.60 1013.90 1014.19 1014.40 1014.50 1014.46 1014.35 1014.19 1014.07 1014.02 1014.07 1014.20 1014.38 1014.54 1014.65 1014.68 1014.62 1014.51 1014.37 1014.25 1014.18 1014.17 1014.21 1014.26 1014.30 1014.29 1014.22 1014.10 1013.96 1013.83 1013.74 1013.70 1013.70 1013.72 1013.72 1013.67
1014.70 1015.21 1015.56 1015.72 1015.67 1015.44 1015.07 1014.63 1014.20 1013.87 1013.68 1013.65 1013.77 1013.99 1014.25 1014.47 1014.61 1014.63 1014.56 1014.42 1014.27 1014.16 1014.12 1014.18 1014.30 1014.45 1014.58 1014.65 1014.65 1014.58 1014.47 1014.35 1014.27 1014.24 1014.26 1014.33 1014.41 1014.46 1014.45 1014.38 1014.26 1014.11 1013.97 1013.85 1013.78 1013.74 1013.71 1013.66 1013.57
1014.59 1014.96 1015.16 1015.21 1015.11 1014.89 1014.59 1014.27 1013.99 1013.81 1013.74 1013.80 1013.96 1014.17 1014.38 1014.55 1014.63 1014.61 1014.52 1014.38 1014.26 1014.17 1014.16 1014.23 1014.34 1014.47 1014.58 1014.63 1014.61 1014.55 1014.45 1014.36 1014.32 1014.33 1014.40 1014.49 1014.58 1014.64 1014.63 1014.54 1014.41 1014.23 1014.07 1013.92 1013.81 1013.73 1013.65 1013.56 1013.43
1014.44 1014.64 1014.70 1014.64 1014.48 1014.26 1014.03 1013.81 1013.65 1013.58 1013.61 1013.73 1013.91 1014.12 1014.30 1014.43 1014.48 1014.45 1014.36 1014.26 1014.17 1014.13 1014.16 1014.24 1014.36 1014.48 1014.57 1014.62 1014.60 1014.55 1014.48 1014.43 1014.43 1014.48 1014.57 1014.68 1014.78 1014.83 1014.80 1014.70 1014.53 1014.34 1014.13 1013.95 1013.80 1013.67 1013.56 1013.44 1013.29
1014.33 1014.38 1014.30 1014.13 1013.91 1013.68 1013.48 1013.33 1013.25 1013.26 1013.35 1013.51 1013.70 1013.89 1014.04 1014.15 1014.20 1014.18 1014.13 1014.08 1014.05 1014.06 1014.13 1014.24 1014.38 1014.51 1014.60 1014.65 1014.65 1014.62 1014.59 1014.58 1014.61 1014.69 1014.79 1014.91 1014.99 1015.02 1014.97 1014.84 1014.65 1014.43 1014.19 1013.97 1013.79 1013.63 1013.49 1013.35 1013.19
1014.36 1014.27 1014.06 1013.79 1013.51 1013.26 1013.07 1012.95 1012.91 1012.96 1013.07 1013.23 1013.40 1013.57 1013.71 1013.81 1013.87 1013.89 1013.89 1013.89 1013.92 1014.00 1014.11 1014.26 1014.41 1014.56 1014.67 1014.74 1014.77 1014.78 1014.78 1014.80 1014.86 1014.94 1015.05 1015.15 1015.21 1015.22 1015.14 1014.99 1014.78 1014.53 1014.28 1014.04 1013.82 1013.64 1013.49 1013.34 1013.19
1014.56 1014.35 1014.05 1013.70 1013.38 1013.10 1012.90 1012.79 1012.75 1012.78 1012.87 1013.00 1013.14 1013.28 1013.41 1013.51 1013.58 1013.64 1013.69 1013.75 1013.84 1013.95 1014.10 1014.28 1014.46 1014.63 1014.77 1014.88 1014.95 1014.99 1015.04 1015.08 1015.15 1015.24 1015.33 1015.40 1015.44 1015.41 1015.32 1015.16 1014.94 1014.68 1014.42 1014.17 1013.95 1013.76 1013.59 1013.45 1013.32
1014.91 1014.64 1014.28 1013.90 1013.55 1013.26 1013.04 1012.90 1012.82 1012.81 1012.84 1012.91 1013.00 1013.10 1013.21 1013.31 1013.40 1013.49 1013.58 1013.68 1013.80 1013.95 1014.12 1014.31 1014.51 1014.71 1014.89 1015.04 1015.16 1015.25 1015.33 1015.39 1015.46 1015.53 1015.60 1015.64 1015.65 1015.60 1015.50 1015.34 1015.13 1014.89 1014.64 1014.40 1014.17 1013.98 1013.82 1013.69 1013.58
1015.35 1015.07 1014.72 1014.36 1014.02 1013.72 1013.48 1013.29 1013.15 1013.06 1013.00 1012.99 1013.01 1013.06 1013.14 1013.24 1013.34 1013.46 1013.57 1013.69 1013.82 1013.97 1014.15 1014.34 1014.56 1014.78 1015.00 1015.20 1015.37 1015.51 1015.62 1015.70 1015.77 1015.82 1015.85 1015.86 1015.84 1015.78 1015.69 1015.54 1015.36 1015.16 1014.93 1014.71 1014.50 1014.31 1014.15 1014.03 1013.94
1015.77 1015.56 1015.28 1014.99 1014.70 1014.42 1014.16 1013.92 1013.70 1013.49 1013.33 1013.21 1013.15 1013.14 1013.19 1013.28 1013.40 1013.52 1013.64 1013.76 1013.88 1014.02 1014.17 1014.36 1014.58 1014.82 1015.08 1015.33 1015.56 1015.75 1015.89 1015.99 1016.05 1016.07 1016.07 1016.04 1016.00 1015.94 1015.86 1015.75 1015.62 1015.45 1015.27 1015.08 1014.89 1014.71 1014.56 1014.45 1014.38
1016.10 1016.01 1015.87 1015.70 1015.50 1015.27 1015.00 1014.69 1014.37 1014.04 1013.75 1013.51 1013.36 1013.30 1013.31 1013.39 1013.51 1013.64 1013.76 1013.87 1013.97 1014.07 1014.19 1014.36 1014.57 1014.84 1015.13 1015.43 1015.71 1015.95 1016.13 1016.24 1016.29 1016.29 1016.25 1016.20 1016.14 1016.08 1016.02 1015.96 1015.87 1015.76 1015.63 1015.47 1015.30 1015.14 1015.00 1014.89 1014.83
1016.25 1016.35 1016.40 1016.39 1016.32 1016.15 1015.87 1015.50 1015.07 1014.61 1014.18 1013.82 1013.57 1013.44 1013.42 1013.50 1013.62 1013.76 1013.87 1013.97 1014.03 1014.10 1014.19 1014.33 1014.54 1014.82 1015.15 1015.50 1015.83 1016.12 1016.33 1016.46 1016.50 1016.48 1016.41 1016.33 1016.26 1016.21 1016.17 1016.14 1016.11 1016.05 1015.97 1015.85 1015.70 1015.55 1015.41 1015.31 1015.26
1016.23 1016.54 1016.81 1017.00 1017.06 1016.96 1016.69 1016.25 1015.70 1015.10 1014.53 1014.04 1013.70 1013.51 1013.47 1013.54 1013.67 1013.82 1013.94 1014.02 1014.07 1014.11 1014.16 1014.28 1014.49 1014.78 1015.14 1015.54 1015.93 1016.26 1016.51 1016.65 1016.69 1016.65 1016.56 1016.46 1016.37 1016.32 1016.30 1016.30 1016.31 1016.30 1016.26 1016.18 1016.06 1015.92 1015.79 1015.69 1015.65
1016.07 1016.61 1017.11 1017.49 1017.69 1017.66 1017.38 1016.88 1016.22 1015.48 1014.76 1014.15 1013.72 1013.47 1013.41 1013.48 1013.63 1013.80 1013.94 1014.02 1014.06 1014.08 1014.12 1014.22 1014.42 1014.73 1015.12 1015.56 1015.99 1016.37 1016.65 1016.81 1016.86 1016.81 1016.71 1016.58 1016.48 1016.43 1016.42 1016.45 1016.49 1016.52 1016.51 1016.46 1016.36 1016.23 1016.11 1016.02 1015.98
1015.88 1016.62 1017.32 1017.88 1018.19 1018.22 1017.93 1017.36 1016.59 1015.72 1014.88 1014.16 1013.64 1013.35 1013.26 1013.34 1013.51 1013.71 1013.87 1013.97 1014.01 1014.02 1014.05 1014.15 1014.35 1014.67 1015.08 1015.55 1016.02 1016.44 1016.75 1016.94 1016.99 1016.95 1016.84 1016.71 1016.60 1016.54 1016.54 1016.58 1016.64 1016.69 1016.71 1016.68 1016.60 1016.50 1016.38 1016.30 1016.26
1015.72 1016.62 1017.48 1018.16 1018.57 1018.63 1018.33 1017.70 1016.84 1015.87 1014.92 1014.11 1013.52 1013.18 1013.08 1013.16 1013.35 1013.57 1013.76 1013.87 1013.93 1013.95 1013.98 1014.08 1014.28 1014.60 1015.03 1015.51 1016.01 1016.45 1016.79 1017.00 1017.08 1017.04 1016.94 1016.81 1016.70 1016.64 1016.65 1016.70 1016.77 1016.84 1016.88 1016.87 1016.81 1016.72 1016.62 1016.55 1016.52
1015.64 1016.65 1017.60 1018.36 1018.82 1018.90 1018.58 1017.92 1017.00 1015.96 1014.94 1014.06 1013.42 1013.05 1012.93 1013.00 1013.20 1013.44 1013.64 1013.77 1013.84 1013.87 1013.90 1014.00 1014.20 1014.51 1014.94 1015.43 1015.93 1016.39 1016.75 1016.98 1017.08 1017.07 1016.98 1016.87 1016.78 1016.73 1016.73 1016.79 1016.88 1016.96 1017.02 1017.03 1017.00 1016.93 1016.85 1016.78 1016.76
1015.66 1016.69 1017.67 1018.46 1018.93 1019.02 1018.70 1018.02 1017.08 1016.02 1014.97 1014.07 1013.40 1013.00 1012.86 1012.93 1013.12 1013.35 1013.56 1013.70 1013.77 1013.80 1013.84 1013.92 1014.11 1014.41 1014.81 1015.28 1015.77 1016.23 1016.60 1016.85 1016.97 1016.99 1016.94 1016.86 1016.79 1016.76 1016.78 1016.85 1016.94 1017.04 1017.12 1017.16 1017.15 1017.11 1017.06 1017.01 1016.99
1015.71 1016.70 1017.66 1018.42 1018.89 1018.97 1018.67 1018.01 1017.09 1016.05 1015.03 1014.14 1013.48 1013.07 1012.92 1012.96 1013.13 1013.34 1013.53 1013.67 1013.74 1013.76 1013.79 1013.86 1014.02 1014.29 1014.65 1015.09 1015.54 1015.98 1016.34 1016.60 1016.75 1016.80 1016.79 1016.75 1016.72 1016.72 1016.76 1016.85 1016.96 1017.07 1017.17 1017.24 1017.26 1017.26 1017.24 1017.22 1017.21
1015.70 1016.62 1017.50 1018.21 1018.64 1018.73 1018.45 1017.85 1017.01 1016.05 1015.10 1014.28 1013.65 1013.26 1013.09 1013.11 1013.24 1013.42 1013.58 1013.69 1013.75 1013.77 1013.78 1013.83 1013.96 1014.18 1014.49 1014.87 1015.27 1015.66 1016.00 1016.25 1016.42 1016.51 1016.54 1016.55 1016.56 1016.59 1016.66 1016.77 1016.90 1017.03 1017.15 1017.24 1017.31 1017.34 1017.36 1017.37 1017.39
1015.56 1016.37 1017.14 1017.77 1018.16 1018.25 1018.02 1017.51 1016.79 1015.96 1015.14 1014.41 1013.85 1013.50 1013.33 1013.33 1013.42 1013.56 1013.69 1013.77 1013.81 1013.82 1013.82 1013.85 1013.94 1014.11 1014.36 1014.67 1015.01 1015.34 1015.63 1015.87 1016.03 1016.14 1016.21 1016.26 1016.31 1016.38 1016.48 1016.61 1016.75 1016.90 1017.04 1017.16 1017.25 1017.33 1017.39 1017.44 1017.49
1015.24 1015.91 1016.56 1017.09 1017.43 1017.52 1017.36 1016.96 1016.39 1015.73 1015.06 1014.48 1014.02 1013.72 1013.58 1013.56 1013.63 1013.73 1013.82 1013.89 1013.91 1013.91 1013.91 1013.93 1013.99 1014.12 1014.31 1014.55 1014.81 1015.07 1015.31 1015.50 1015.66 1015.78 1015.87 1015.95 1016.03 1016.13 1016.25 1016.39 1016.54 1016.69 1016.84 1016.98 1017.10 1017.21 1017.31 1017.40 1017.49
Thickness
5794 5794 5790 5778 5758 5742 5739 5749 5759 5763 5769 5778 5785 5781 5772 5766 5761 5752 5771 5780 5779 5777 5776 5774 5773 5772 5771 5770 5769 5768 5767 5766 5764 5763 5761 5760 5759 5757 5756 5754 5753 5753 5751 5750 5750 5749 5748 5748 5748
5793 5791 5781 5765 5746 5730 5736 5752 5758 5767 5776 5782 5783 5779 5772 5767 5773 5770 5772 5777 5778 5776 5774 5772 5771 5770 5769 5768 5767 5766 5764 5763 5762 5760 5759 5757 5756 5754 5753 5752 5751 5750 5749 5748 5747 5746 5745 5745 5745
5792 5788 5769 5753 5742 5734 5738 5755 5762 5775 5784 5784 5777 5776 5771 5767 5773 5772 5775 5777 5776 5773 5771 5770 5769 5768 5766 5765 5764 5763 5762 5761 5759 5758 5756 5755 5753 5752 5750 5749 5748 5747 5746 5745 5744 5744 5743 5742 5742
5784 5773 5761 5746 5740 5747 5752 5760 5769 5773 5778 5782 5776 5767 5770 5778 5778 5776 5777 5776 5773 5771 5769 5768 5767 5765 5764 5763 5762 5760 5759 5758 5757 5755 5754 5752 5750 5749 5747 5746 5745 5744 5743 5742 5741 5741 5740 5740 5739
5777 5760 5745 5737 5742 5753 5762 5768 5772 5771 5771 5774 5773 5760 5761 5776 5781 5777 5775 5774 5771 5769 5767 5766 5765 5764 5762 5761 5760 5758 5757 5756 5755 5753 5752 5750 5748 5746 5745 5743 5742 5741 5741 5739 5739 5738 5738 5737 5737
5759 5750 5733 5729 5741 5753 5762 5770 5771 5767 5768 5771 5768 5759 5758 5774 5775 5773 5774 5772 5771 5768 5766 5765 5764 5762 5761 5760 5758 5757 5755 5754 5752 5751 5749 5747 5745 5744 5742 5741 5740 5739 5738 5737 5736 5736 5735 5735 5735
5750 5740 5732 5736 5739 5746 5761 5771 5768 5766 5766 5770 5771 5756 5758 5768 5774 5775 5773 5771 5769 5767 5765 5764 5762 5760 5759 5758 5757 5755 5754 5752 5751 5749 5747 5745 5744 5742 5741 5739 5738 5737 5736 5735 5734 5733 5733 5733 5732
5756 5740 5734 5735 5737 5744 5762 5771 5773 5771 5768 5778 5776 5758 5755 5767 5774 5773 5770 5768 5766 5765 5764 5762 5760 5759 5757 5756 5755 5754 5752 5750 5749 5747 5745 5743 5742 5740 5739 5737 5736 5735 5733 5732 5732 5731 5731 5730 5730
5756 5732 5725 5733 5738 5746 5762 5765 5771 5778 5774 5775 5776 5772 5772 5774 5773 5768 5763 5761 5761 5761 5760 5760 5758 5757 5755 5754 5753 5752 5750 5748 5747 5745 5743 5742 5740 5738 5737 5735 5734 5732 5731 5730 5730 5729 5729 5729 5728
5743 5725 5733 5745 5750 5752 5760 5764 5767 5765 5762 5762 5765 5770 5773 5771 5768 5762 5759 5757 5757 5757 5758 5758 5757 5755 5754 5753 5752 5750 5748 5746 5744 5743 5741 5740 5738 5736 5734 5733 5731 5730 5729 5728 5727 5726 5726 5726 5726
5743 5734 5743 5750 5757 5760 5761 5765 5771 5760 5752 5758 5760 5763 5767 5766 5763 5760 5759 5759 5759 5759 5759 5759 5757 5755 5753 5752 5750 5748 5745 5744 5742 5740 5739 5737 5735 5734 5732 5730 5728 5727 5725 5724 5723 5723 5722 5722 5723
5743 5745 5751 5754 5760 5761 5761 5764 5765 5763 5762 5771 5771 5770 5766 5762 5760 5759 5758 5758 5759 5759 5759 5759 5758 5755 5753 5751 5749 5746 5744 5742 5740 5738 5737 5735 5732 5730 5728 5726 5724 5723 5721 5720 5719 5718 5718 5719 5719
5738 5742 5753 5759 5761 5763 5764 5763 5764 5764 5771 5773 5770 5767 5764 5761 5761 5761 5761 5760 5758 5757 5758 5758 5757 5754 5752 5750 5747 5744 5742 5740 5738 5736 5734 5732 5729 5727 5725 5723 5721 5719 5718 5717 5715 5714 5714 5714 5714
5739 5743 5748 5753 5756 5762 5760 5760 5761 5760 5770 5768 5765 5762 5762 5761 5761 5759 5758 5756 5756 5756 5756 5756 5755 5753 5751 5748 5745 5742 5740 5738 5735 5734 5732 5730 5727 5724 5722 5720 5718 5717 5715 5713 5712 5710 5709 5709 5710
5741 5735 5738 5746 5753 5756 5757 5747 5753 5763 5767 5762 5760 5760 5761 5762 5762 5759 5759 5758 5757 5756 5756 5755 5753 5752 5749 5746 5744 5741 5738 5735 5733 5730 5729 5727 5725 5722 5719 5717 5715 5713 5712 5711 5709 5707 5706 5705 5705
5730 5721 5717 5736 5749 5753 5746 5729 5752 5763 5761 5755 5755 5757 5758 5760 5761 5762 5762 5761 5759 5757 5755 5754 5754 5750 5747 5744 5741 5739 5736 5733 5730 5729 5727 5725 5723 5720 5718 5715 5713 5711 5709 5707 5705 5702 5700 5699 5699
5710 5704 5710 5726 5745 5747 5741 5732 5750 5760 5757 5752 5752 5753 5755 5756 5758 5760 5762 5761 5759 5757 5754 5752 5750 5747 5745 5742 5740 5737 5734 5731 5729 5727 5725 5723 5721 5719 5716 5713 5711 5709 5706 5703 5702 5699 5697 5695 5695
5699 5704 5710 5718 5736 5741 5735 5735 5746 5754 5755 5750 5749 5750 5751 5752 5754 5759 5761 5760 5758 5756 5754 5751 5748 5745 5743 5740 5737 5734 5731 5728 5727 5725 5723 5722 5720 5717 5714 5711 5708 5706 5703 5699 5697 5695 5694 5693 5692
5711 5710 5710 5720 5737 5735 5730 5732 5740 5748 5749 5746 5746 5747 5748 5750 5756 5759 5760 5758 5755 5752 5750 5749 5746 5743 5741 5737 5733 5729 5726 5725 5724 5723 5722 5720 5718 5716 5713 5709 5706 5703 5699 5696 5694 5692 5690 5689 5690
5710 5705 5707 5718 5733 5730 5724 5726 5736 5743 5745 5747 5746 5747 5748 5748 5751 5753 5755 5755 5753 5750 5748 5747 5744 5742 5741 5738 5734 5731 5728 5725 5723 5722 5720 5719 5717 5715 5712 5708 5704 5701 5698 5695 5692 5690 5686 5685 5686
5705 5704 5708 5712 5722 5725 5720 5714 5723 5735 5744 5747 5748 5749 5749 5749 5748 5749 5750 5751 5750 5748 5747 5747 5744 5742 5741 5738 5735 5731 5727 5723 5721 5719 5718 5717 5715 5713 5710 5707 5703 5700 5697 5693 5691 5688 5685 5681 5682
5700 5715 5718 5716 5707 5700 5711 5692 5713 5725 5731 5737 5741 5744 5745 5747 5748 5748 5748 5748 5748 5748 5748 5746 5744 5742 5740 5738 5734 5729 5723 5719 5719 5718 5717 5716 5715 5712 5709 5706 5703 5700 5696 5693 5691 5688 5685 5682 5678
5709 5721 5718 5713 5703 5698 5703 5693 5702 5720 5720 5728 5736 5741 5744 5746 5747 5747 5747 5747 5748 5748 5747 5745 5743 5741 5739 5737 5734 5729 5724 5721 5720 5719 5717 5715 5713 5711 5709 5706 5703 5700 5696 5693 5691 5688 5685 5682 5679
5719 5713 5707 5702 5695 5685 5699 5694 5697 5711 5722 5728 5734 5739 5742 5744 5746 5745 5746 5746 5746 5746 5745 5743 5741 5739 5738 5736 5733 5729 5725 5722 5720 5718 5715 5713 5712 5710 5708 5706 5703 5700 5697 5694 5691 5688 5685 5683 5681
5710 5692 5676 5673 5673 5681 5703 5700 5705 5726 5734 5736 5735 5737 5740 5742 5742 5742 5742 5742 5742 5742 5742 5741 5739 5737 5736 5734 5732 5730 5726 5724 5721 5718 5716 5713 5710 5709 5708 5706 5703 5700 5698 5695 5692 5689 5686 5684 5682
5703 5698 5678 5668 5668 5679 5698 5696 5713 5735 5738 5739 5738 5738 5738 5738 5739 5740 5740 5740 5740 5740 5739 5739 5737 5736 5735 5733 5732 5730 5728 5725 5722 5720 5717 5714 5712 5710 5709 5706 5703 5701 5698 5696 5693 5690 5688 5686 5683
5701 5697 5703 5687 5683 5677 5686 5701 5716 5728 5729 5731 5732 5733 5734 5736 5738 5738 5739 5739 5738 5738 5738 5738 5736 5735 5734 5733 5731 5729 5727 5725 5723 5721 5719 5716 5714 5712 5710 5707 5704 5701 5698 5696 5693 5690 5688 5686 5684
5719 5710 5696 5686 5674 5670 5682 5689 5697 5712 5720 5726 5728 5729 5732 5735 5735 5736 5736 5737 5737 5737 5737 5737 5736 5734 5733 5732 5730 5729 5727 5725 5723 5721 5718 5716 5714 5712 5710 5707 5704 5701 5699 5696 5693 5690 5688 5686 5684
5714 5710 5702 5691 5690 5675 5671 5689 5727 5727 5730 5729 5729 5730 5731 5732 5732 5733 5734 5735 5735 5735 5735 5734 5733 5732 5731 5730 5728 5727 5725 5724 5722 5720 5718 5716 5714 5712 5709 5707 5704 5701 5698 5696 5693 5690 5688 5685 5684
5728 5720 5708 5692 5689 5689 5684 5699 5743 5740 5737 5735 5731 5731 5732 5732 5732 5732 5732 5732 5732 5732 5732 5731 5731 5730 5729 5727 5726 5724 5723 5721 5719 5717 5716 5715 5712 5711 5708 5706 5703 5700 5698 5695 5692 5689 5687 5684 5682